Погода в Боровичах

Россия / Новгородская область     58°23′17″N   33°54′50″E
темп.,
°C
ветер,
м/с
пор.,
м/с
влажн.,
%
обл.,
%
осадки,
мм/ч
давл.,
гПа
погр.,
м
7 мая, пт
пт700:00+5юз61192100 0.2 10001021
03:00+4юз61192100 0.8 1002976
06:00+4юз51191100 0.1 1003848
09:00+5ююз598581 0.3 1004956
12:00+9юз6116572 0.4 10051779
15:00+10юз5106187 1.3 10061741
18:00+10юз475922 0.5 10061502
21:00+5ю2284100 0.8 100712
8 мая, сб
сб800:00+4юв2488100 0.0 100792
03:00+5вюв41088100 0.0 1005302
06:00+6ююв51294100 1.6 10031080
09:00+6ююв51094100 2.7 10021075
12:00+5з51095100 0.4 1004563
15:00+6з4889100 0.5 1006846
18:00+6зсз378845 0.1 1007721
21:00+3сз51086100 0.2 1008761
9 мая, вс
вс900:00+1сз279618 0.0 1009181
03:00+1зсз3109765 0.0 1011407
06:00+1з27937 0.0 1013272
09:00+6зсз47660 0.0 1015640
12:00+10зсз574696 0.1 10162201
15:00+11зсз6935100 0.1 10182518
18:00+11зсз48475 0.0 10192250
21:00+5зюз227644 0.0 102218
10 мая, пн
пн1000:00+4ююз268093 0.0 102396
03:00+4ю31175100 0.0 1024239
06:00+6ююз3117199 0.0 1024450
09:00+6ю41286100 0.6 1024595
12:00+9ююз41176100 0.1 1025673
15:00+17зюз5855100 0.1 10241220
18:00+17юз486132 0.0 10251366
21:00+11ююз378496 0.0 1026116
11 мая, вт
вт1100:00+9ююз31090100 0.0 1028199
03:00+8ююз2693100 0.0 1029110
06:00+9ю398780 0.0 1029234
09:00+14ююз4764100 0.0 1029518
12:00+18ююз464850 0.0 10291131
15:00+20ююз46413 0.0 10281561
18:00+20ю36515 0.0 1027933
21:00+13ю39765 0.0 1027146